FW2218 Weather Reports


Display with metric or nautical units.
time (UTC)temp
F
wind
direction
speed
MPH
gust
MPH
rain 1hr
in
rain 24hr
in
rain mn
in
humidity
%
barometer
mb
20260508204532 66 282 13.0 31.0 0.00 0.00 0.00 40 1013.0
20260508203031 66 274 15.0 30.0 0.00 0.00 0.00 42 1012.8
20260508201532 66 278 15.0 28.0 0.00 0.00 0.00 43 1012.8
20260508200032 67 278 12.0 24.0 0.00 0.00 0.00 45 1013.0
20260508194608 65 287 10.0 20.0 0.00 0.00 0.00 46 1013.2
20260508193105 65 283 11.0 22.0 0.00 0.00 0.00 45 1013.4
20260508190031 62 270 10.0 18.0 0.00 0.00 0.00 48 1013.8
20260508181535 59 277 11.0 21.0 0.00 0.00 0.00 50 1013.6
20260508180145 60 279 11.0 21.0 0.00 0.00 0.00 50 1013.5
20260508174610 61 277 9.0 18.0 0.00 0.00 0.00 50 1013.1
20260508173032 62 279 10.0 19.0 0.00 0.00 0.00 50 1012.9
20260508171531 62 277 11.0 19.0 0.00 0.00 0.00 49 1012.8
20260508170030 63 280 9.0 17.0 0.00 0.00 0.00 51 1012.7
20260508163031 62 277 8.0 16.0 0.00 0.00 0.00 55 1013.0
20260508161530 61 282 9.0 20.0 0.00 0.00 0.00 57 1013.0
20260508160029 60 281 9.0 19.0 0.00 0.00 0.00 59 1013.0
20260508154533 60 276 10.0 22.0 0.00 0.00 0.00 59 1012.9
20260508153032 58 279 7.0 15.0 0.00 0.00 0.00 59 1012.9
20260508151531 57 275 6.0 15.0 0.00 0.00 0.00 61 1012.8
20260508144606 57 258 2.0 7.0 0.00 0.00 0.00 60 1012.5
20260508141530 57 275 9.0 18.0 0.00 0.00 0.00 59 1012.0
20260508140038 57 266 9.0 19.0 0.00 0.00 0.00 60 1011.9
20260508134531 57 261 9.0 17.0 0.00 0.00 0.00 60 1011.7
20260508133143 56 267 9.0 17.0 0.00 0.00 0.00 60 1011.4
20260508131602 54 269 7.0 16.0 0.00 0.00 0.00 61 1011.4
20260508124533 53 254 4.0 11.0 0.00 0.00 0.00 59 1011.3
20260508123106 53 194 2.0 10.0 0.00 0.00 0.00 58 1011.3
20260508121606 53 151 0.0 3.0 0.00 0.00 0.00 57 1011.3
20260508120032 54 189 1.0 4.0 0.00 0.00 0.00 56 1011.3
20260508114531 54 239 1.0 5.0 0.00 0.00 0.00 56 1011.3
20260508113031 54 216 2.0 5.0 0.00 0.00 0.00 56 1011.1
20260508111605 53 124 2.0 5.0 0.00 0.00 0.00 56 1011.0
20260508110027 55 134 0.0 2.0 0.00 0.00 0.00 54 1011.0
20260508104530 56 150 1.0 4.0 0.00 0.00 0.00 51 1011.0
20260508103030 57 163 2.0 4.0 0.00 0.00 0.00 50 1010.9
20260508100111 58 192 3.0 7.0 0.00 0.00 0.00 47 1010.9
20260508093032 57 127 3.0 5.0 0.00 0.00 0.00 50 1010.8
20260508091530 58 153 2.0 5.0 0.00 0.00 0.00 48 1010.8
20260508084533 58 241 6.0 11.0 0.00 0.00 0.00 48 1010.6
20260508083030 58 226 3.0 8.0 0.00 0.00 0.00 48 1010.6
20260508081604 58 238 4.0 12.0 0.00 0.00 0.00 48 1010.5
20260508080028 59 261 1.0 7.0 0.00 0.00 0.00 47 1010.6
20260508074532 59 329 1.0 6.0 0.00 0.00 0.00 47 1010.5
20260508073032 59 312 0.0 2.0 0.00 0.00 0.00 48 1010.5
20260508071531 60 281 3.0 10.0 0.00 0.00 0.00 45 1010.4
20260508064532 61 252 8.0 15.0 0.00 0.00 0.00 43 1010.3
20260508063030 61 250 7.0 14.0 0.00 0.00 0.00 42 1010.2
20260508061531 62 249 8.0 16.0 0.00 0.00 0.00 41 1010.2
20260508054532 62 257 9.0 18.0 0.00 0.00 0.00 40 1010.1
20260508053030 63 258 9.0 16.0 0.00 0.00 0.00 38 1010.0
20260508051606 63 255 10.0 19.0 0.00 0.00 0.00 38 1009.9
20260508050029 64 255 10.0 18.0 0.00 0.00 0.00 37 1009.8
20260508044531 64 264 10.0 19.0 0.00 0.00 0.00 36 1009.8
20260508043028 64 261 8.0 15.0 0.00 0.00 0.00 34 1009.8
20260508041607 65 263 7.0 17.0 0.00 0.00 0.00 31 1009.7
20260508040031 65 274 7.0 14.0 0.00 0.00 0.00 30 1009.6
20260508033144 66 264 9.0 19.0 0.00 0.00 0.00 26 1009.1
20260508031533 67 265 8.0 18.0 0.00 0.00 0.00 25 1008.9
20260508030031 68 267 8.0 18.0 0.00 0.00 0.00 23 1008.8
20260508024604 69 271 9.0 18.0 0.00 0.00 0.00 22 1008.7
20260508023029 70 276 10.0 20.0 0.00 0.00 0.00 22 1008.7
20260508021529 71 280 9.0 20.0 0.00 0.00 0.00 22 1008.7
20260508020039 72 280 8.0 17.0 0.00 0.00 0.00 23 1008.7
20260508014529 70 278 9.0 19.0 0.00 0.00 0.00 23 1008.8
20260508013146 70 272 12.0 21.0 0.00 0.00 0.00 23 1008.8
20260508010038 72 273 12.0 21.0 0.00 0.00 0.00 22 1008.8
20260508004527 72 277 12.0 23.0 0.00 0.00 0.00 21 1008.8
20260508003145 73 278 13.0 24.0 0.00 0.00 0.00 21 1008.7
20260508001529 74 276 14.0 23.0 0.00 0.00 0.00 22 1008.6
20260508000029 73 277 12.0 25.0 0.00 0.00 0.00 24 1008.7
20260507234529 73 277 12.0 22.0 0.00 0.00 0.00 25 1008.8
20260507233032 74 279 11.0 21.0 0.00 0.00 0.00 27 1008.8
20260507231532 74 275 10.0 20.0 0.00 0.00 0.00 27 1008.9
20260507230036 75 280 10.0 20.0 0.00 0.00 0.00 26 1009.0
20260507224529 75 281 10.0 21.0 0.00 0.00 0.00 26 1009.2
20260507221532 75 278 11.0 23.0 0.00 0.00 0.00 26 1009.4
20260507213029 74 282 10.0 22.0 0.00 0.00 0.00 30 1009.9
20260507210029 73 298 9.0 17.0 0.00 0.00 0.00 31 1010.3